Wind_Speed
13 13 13 13 14 16 18 20 22 25 29 32 34 34 32 28 27 27 26 24 23 23 22 22 21 20 20 19 18 16 16 16 16 17 18 20 21 23 24 26 26 26
11 11 12 12 13 15 17 20 22 25 29 32 33 32 30 27 26 26 24 23 23 22 21 20 19 19 18 17 15 14 13 13 14 14 15 17 19 20 22 23 24 24
10 10 10 11 12 14 17 19 23 26 29 31 31 30 27 25 24 24 23 22 22 21 21 19 18 17 16 15 13 12 11 11 11 12 13 14 16 18 19 20 22 22
8 8 9 9 11 13 16 18 22 25 28 29 29 27 25 23 22 22 22 22 21 21 20 19 18 17 15 13 12 10 9 8 8 9 10 11 13 14 15 17 19 19
6 7 7 8 9 11 13 17 20 24 26 27 27 25 23 22 21 21 21 21 21 20 19 19 17 16 15 13 11 9 8 7 6 6 7 8 9 11 12 13 15 17
5 6 7 7 8 9 11 14 17 20 23 24 24 23 22 21 20 20 20 20 20 20 19 18 17 16 14 13 11 9 8 6 4 3 3 4 6 7 8 10 12 13
5 6 7 8 8 9 10 12 14 17 19 21 22 22 21 21 20 19 19 19 19 19 19 18 17 16 15 13 11 10 9 7 5 3 1 1 2 4 5 6 8 10
7 6 7 8 9 9 10 11 12 14 16 17 18 19 20 20 20 19 19 19 19 19 19 18 18 17 16 14 13 11 10 8 6 5 4 2 2 3 4 4 5 7
9 8 8 8 9 10 11 11 12 12 13 15 16 17 18 18 18 19 19 19 18 18 18 18 18 17 16 15 14 13 11 9 8 7 6 5 4 4 5 5 5 5
11 10 10 9 10 11 12 13 13 13 13 14 15 15 16 17 17 17 18 18 18 18 18 17 17 16 15 15 14 13 12 11 9 8 7 6 6 5 5 5 5 6
14 13 12 13 12 12 12 13 13 14 15 15 15 15 16 16 17 17 17 17 17 17 17 17 16 16 15 15 14 14 13 12 10 9 9 8 7 7 6 6 6 6
20 19 20 20 19 18 16 16 15 14 15 16 16 16 17 17 17 17 17 17 17 17 17 17 17 16 16 15 14 14 13 12 12 11 10 9 9 9 9 8 8 8
24 24 26 26 25 24 23 21 18 16 17 17 17 17 18 18 18 18 18 18 18 18 18 17 17 17 16 16 15 15 14 13 13 12 12 12 12 11 11 11 11 11
28 28 29 29 28 27 26 24 22 21 21 20 18 19 19 19 20 19 19 19 19 19 19 19 18 18 18 18 17 17 17 16 15 15 14 14 14 14 14 14 14 13
33 32 32 31 30 29 28 28 28 27 25 20 19 21 22 22 21 21 20 20 20 20 20 19 20 20 20 20 20 19 19 18 18 17 16 16 16 16 16 16 16 15
38 37 35 34 33 33 33 32 31 30 27 25 25 27 27 26 25 24 23 22 22 21 21 21 22 21 20 20 20 20 20 19 18 18 18 18 17 17 17 17 17 16
43 41 39 38 37 38 37 35 33 32 32 32 33 33 31 30 29 27 26 25 24 24 23 24 23 21 21 21 20 20 20 18 18 18 19 18 18 18 18 17 16 16
46 45 43 42 41 41 39 37 36 37 37 36 36 35 33 33 33 31 29 28 28 27 26 26 24 23 24 23 22 22 21 20 19 20 21 20 20 19 19 18 17 16
50 49 47 45 44 43 42 41 41 41 41 39 36 34 34 35 34 33 32 32 31 29 29 29 28 27 27 25 24 24 24 23 23 23 24 23 22 22 22 21 20 18
52 51 49 48 47 47 46 45 44 43 43 41 37 36 37 37 35 34 34 35 34 32 32 32 32 31 30 30 29 28 27 27 26 26 26 26 25 25 25 24 24 22
55 54 53 52 51 51 50 49 46 45 45 44 41 41 42 42 39 38 38 38 36 34 33 33 34 34 34 35 34 32 31 30 29 29 29 29 28 29 28 27 27 26
60 59 58 57 55 54 54 52 50 48 47 47 45 43 44 45 43 42 41 39 38 36 34 34 37 38 38 38 37 36 34 33 32 32 32 32 32 32 31 30 29 28
63 64 64 62 59 58 57 55 53 51 49 49 48 46 45 46 46 45 42 40 39 38 37 38 41 41 41 40 40 39 38 36 34 33 33 33 34 35 35 33 33 33
65 65 67 66 64 62 61 58 56 54 53 52 51 50 48 48 48 47 44 41 41 41 41 44 45 45 44 43 42 42 41 39 38 37 37 35 34 36 37 37 37 37
68 67 68 69 68 66 65 62 59 57 57 56 54 53 52 50 49 49 47 44 43 44 46 47 48 49 48 46 45 44 43 42 42 43 43 41 39 39 39 39 40 41
73 71 70 71 71 70 69 66 63 61 59 59 58 57 55 54 52 51 50 48 45 47 50 50 49 50 51 50 49 49 47 46 47 48 48 47 46 45 45 44 44 45
Wind_Direction
53 60 71 87 102 112 121 128 133 139 143 145 146 147 146 145 144 144 143 141 141 140 138 134 130 126 122 116 110 104 97 92 88 84 79 73 68 64 60 57 56 55
55 61 70 85 102 114 123 130 136 142 146 148 149 149 149 148 147 148 147 146 146 145 143 140 135 130 125 120 113 105 98 92 88 84 78 73 68 63 59 56 53 52
60 66 73 84 101 116 125 132 139 145 149 151 151 152 152 151 152 152 152 152 151 151 150 147 142 138 133 127 121 112 104 96 88 84 78 73 69 63 59 55 51 49
73 74 79 89 100 115 128 136 142 148 152 154 155 156 156 156 156 158 159 158 158 157 157 156 152 149 144 139 133 126 116 104 93 85 78 73 68 63 58 54 50 45
94 92 92 97 106 117 130 140 146 152 156 158 160 161 162 162 161 163 165 165 165 165 165 165 163 161 158 155 151 147 138 126 110 93 81 71 64 61 58 53 49 43
122 120 117 114 119 125 133 142 150 156 161 164 166 167 168 168 168 168 169 171 172 173 174 174 174 174 173 171 171 169 166 159 147 122 93 73 58 52 51 50 47 41
160 151 144 136 136 138 141 147 153 159 165 169 172 174 175 175 175 175 175 176 178 180 182 183 185 186 187 188 190 191 190 190 194 199 184 85 40 26 28 36 37 35
188 177 166 157 152 151 153 156 160 163 168 172 176 180 181 182 183 184 183 183 183 185 187 190 193 195 199 201 205 206 207 210 220 230 237 253 291 322 341 0 11 18
201 196 191 181 171 166 165 166 168 171 173 177 180 184 186 189 191 192 192 191 191 192 194 196 199 202 205 209 212 215 217 221 230 237 242 250 266 289 307 319 332 344
205 206 208 203 193 185 180 177 176 178 181 184 186 189 191 193 196 197 198 199 199 200 201 203 206 208 211 214 218 220 223 226 230 233 237 244 256 270 282 292 300 313
205 208 216 215 213 207 196 189 186 185 188 191 192 195 197 198 200 201 202 204 204 205 206 207 209 212 215 218 221 224 226 227 227 228 231 236 245 250 256 265 276 286
206 204 211 211 211 213 209 201 196 195 197 198 198 200 202 204 205 206 206 207 208 207 208 209 210 212 215 217 220 222 224 224 223 223 224 227 232 238 244 253 260 269
215 210 212 212 208 209 208 204 200 203 208 207 204 205 207 208 210 212 212 212 212 211 211 211 212 213 215 216 218 220 221 222 222 222 224 228 232 239 247 253 256 259
222 218 217 216 214 211 209 205 203 206 210 211 212 213 212 212 214 214 216 218 217 218 217 217 218 219 220 221 222 224 226 228 229 230 232 235 239 243 247 250 252 253
222 222 220 219 218 216 213 210 207 207 207 208 220 225 220 217 217 216 217 219 220 221 221 221 223 225 226 226 227 229 231 232 233 235 237 238 240 242 243 245 247 250
221 223 224 222 221 220 219 216 213 211 206 202 214 225 225 222 219 218 218 219 220 221 221 222 224 226 228 229 229 231 234 233 233 235 237 238 239 240 242 243 245 248
222 223 224 225 225 224 224 223 221 220 214 206 208 215 221 223 222 220 220 221 222 223 224 225 226 225 227 229 230 233 236 235 234 236 237 238 239 239 240 241 242 246
225 225 224 226 227 227 227 226 226 227 222 216 213 213 216 220 222 221 220 221 223 225 226 230 230 229 229 230 229 232 234 234 235 236 238 239 239 238 238 239 239 242
228 228 227 226 227 229 229 228 228 231 229 225 223 222 220 221 222 223 225 224 224 224 227 231 232 232 233 234 233 233 233 232 232 234 238 242 241 238 239 240 239 239
231 231 231 229 229 229 231 230 231 233 233 229 228 229 229 225 222 224 228 229 226 225 228 231 233 234 235 236 235 234 234 234 233 234 237 241 242 241 240 242 243 242
233 233 233 232 231 230 231 231 233 235 234 231 232 234 233 230 226 224 227 229 228 227 229 234 237 237 237 238 237 236 236 236 236 237 238 240 242 243 243 243 246 248
234 234 234 234 233 233 233 232 233 235 235 234 235 236 236 236 233 230 228 228 230 231 233 239 242 240 239 240 240 239 238 238 238 239 242 242 243 244 244 244 246 250
235 235 235 235 235 235 235 234 234 235 235 235 235 235 238 240 238 235 233 231 232 235 237 241 244 245 245 245 245 244 242 241 241 241 243 247 247 247 246 245 243 245
233 235 235 235 236 237 236 236 235 234 235 236 236 236 240 242 240 238 238 235 234 237 240 242 243 245 248 249 249 249 248 247 247 246 245 246 250 251 252 250 246 245
231 234 234 234 236 237 237 237 236 236 235 236 237 238 241 243 242 242 241 237 235 236 238 241 242 242 244 247 247 248 248 248 249 250 249 248 249 252 254 255 253 251
231 233 234 233 234 236 238 238 238 237 236 235 237 239 242 243 242 244 244 241 237 236 236 239 242 243 244 245 245 245 246 245 245 247 249 249 249 249 249 251 252 252
Height
10991 10990 10989 10988 10988 10987 10987 10987 10988 10989 10991 10992 10994 10996 10999 11001 11002 11004 11005 11006 11007 11008 11009 11009 11010 11010 11010 11010 11010 11010 11010 11009 11009 11008 11008 11007 11006 11005 11005 11004 11002 11002
10994 10993 10992 10991 10991 10990 10990 10990 10991 10992 10994 10995 10997 10999 11001 11002 11004 11005 11006 11008 11008 11009 11010 11011 11011 11011 11012 11012 11012 11012 11011 11011 11011 11010 11010 11009 11008 11007 11007 11006 11004 11004
10996 10995 10995 10994 10994 10993 10993 10993 10994 10995 10996 10998 11000 11001 11003 11004 11006 11007 11008 11009 11010 11010 11011 11012 11012 11012 11013 11013 11013 11013 11013 11013 11013 11012 11012 11011 11010 11009 11009 11008 11007 11006
10997 10997 10997 10996 10996 10996 10996 10996 10997 10998 10999 11000 11001 11003 11004 11006 11007 11008 11009 11010 11011 11012 11012 11012 11013 11013 11014 11014 11014 11014 11014 11014 11014 11014 11013 11013 11012 11011 11010 11010 11009 11008
10998 10998 10998 10998 10998 10998 10998 10999 10999 11000 11001 11002 11003 11004 11005 11007 11008 11009 11010 11011 11011 11012 11013 11013 11014 11014 11014 11015 11015 11015 11015 11015 11015 11015 11014 11014 11014 11013 11012 11012 11011 11010
10999 10999 10999 10999 11000 11000 11000 11001 11001 11001 11002 11003 11004 11005 11006 11007 11008 11009 11010 11011 11012 11012 11013 11014 11014 11015 11015 11015 11015 11016 11016 11016 11016 11015 11015 11015 11015 11014 11014 11013 11012 11011
11000 11000 11000 11000 11000 11001 11001 11002 11002 11003 11003 11004 11005 11005 11006 11007 11008 11009 11010 11011 11011 11012 11013 11013 11014 11014 11015 11015 11016 11016 11016 11016 11016 11016 11016 11016 11015 11015 11015 11014 11013 11013
10999 11000 11001 11001 11001 11001 11002 11002 11003 11003 11004 11005 11005 11006 11006 11007 11008 11009 11009 11010 11011 11012 11013 11013 11014 11014 11015 11015 11015 11016 11016 11016 11016 11016 11016 11016 11016 11016 11015 11015 11014 11014
10998 11000 11001 11001 11002 11002 11002 11002 11003 11003 11004 11004 11005 11006 11006 11007 11008 11009 11009 11010 11011 11011 11012 11013 11013 11014 11014 11015 11015 11015 11016 11016 11016 11016 11016 11016 11016 11016 11016 11016 11015 11015
10996 10999 11000 11001 11002 11002 11002 11002 11002 11002 11003 11003 11004 11005 11006 11006 11007 11008 11009 11010 11010 11011 11012 11012 11013 11014 11014 11014 11015 11015 11015 11015 11016 11016 11016 11016 11016 11016 11016 11016 11015 11015
10994 10996 11000 11002 11002 11003 11002 11002 11001 11001 11002 11002 11003 11003 11004 11005 11006 11007 11008 11009 11010 11010 11011 11012 11012 11013 11013 11013 11014 11014 11014 11015 11015 11015 11015 11015 11015 11015 11015 11015 11015 11015
10988 10990 10995 10998 10999 10999 10999 10999 10999 11000 11001 11001 11001 11001 11002 11003 11004 11005 11006 11007 11008 11009 11010 11010 11011 11011 11012 11012 11013 11013 11013 11014 11014 11014 11014 11014 11014 11014 11014 11014 11014 11015
10986 10985 10989 10993 10994 10994 10994 10994 10994 10997 10999 10999 10999 11000 11000 11001 11002 11003 11004 11005 11006 11007 11008 11008 11009 11010 11010 11010 11011 11011 11012 11012 11012 11013 11013 11013 11013 11013 11013 11013 11013 11014
10984 10984 10986 10989 10991 10991 10991 10991 10990 10992 10994 10995 10997 10997 10998 10999 10999 11000 11002 11003 11004 11005 11005 11007 11007 11008 11008 11009 11009 11009 11010 11010 11011 11011 11011 11011 11012 11012 11012 11012 11013 11013
10980 10981 10983 10985 10987 10988 10988 10987 10987 10986 10988 10991 10994 10996 10996 10996 10997 10998 10999 11000 11001 11002 11003 11004 11005 11006 11006 11006 11006 11007 11007 11008 11009 11010 11010 11010 11011 11011 11011 11011 11012 11012
10976 10977 10979 10981 10983 10984 10984 10984 10984 10984 10983 10984 10987 10991 10993 10993 10993 10994 10995 10996 10997 10999 11000 11001 11002 11003 11004 11004 11005 11005 11006 11007 11008 11008 11009 11009 11009 11010 11010 11010 11011 11010
10972 10974 10975 10977 10978 10979 10980 10982 10982 10982 10981 10979 10979 10982 10985 10988 10989 10990 10991 10992 10993 10995 10997 10997 10999 11000 11001 11002 11003 11004 11005 11006 11007 11007 11007 11007 11008 11008 11009 11009 11009 11009
10968 10970 10971 10972 10973 10974 10976 10978 10978 10978 10979 10978 10977 10978 10979 10981 10984 10986 10987 10988 10989 10991 10993 10994 10996 10998 10998 10999 11000 11001 11003 11004 11004 11004 11004 11004 11005 11005 11005 11006 11007 11007
10963 10965 10967 10969 10970 10971 10972 10973 10973 10974 10975 10976 10976 10977 10977 10978 10980 10982 10984 10985 10986 10988 10990 10991 10993 10995 10995 10996 10997 10998 10999 11000 11000 11001 11001 11001 11002 11002 11003 11003 11005 11005
10959 10961 10964 10965 10966 10966 10967 10967 10969 10970 10972 10973 10974 10975 10975 10976 10977 10978 10980 10982 10983 10985 10987 10988 10990 10992 10993 10993 10994 10994 10996 10996 10997 10997 10997 10998 10999 10999 11000 11001 11002 11002
10954 10956 10958 10959 10960 10961 10962 10963 10965 10966 10968 10970 10971 10972 10972 10973 10973 10973 10975 10978 10980 10982 10984 10985 10986 10987 10988 10988 10989 10990 10991 10992 10993 10994 10994 10994 10995 10996 10997 10998 10999 10999
10947 10949 10951 10953 10955 10956 10957 10958 10960 10962 10964 10966 10968 10968 10969 10971 10971 10972 10974 10976 10978 10980 10982 10982 10981 10981 10983 10983 10984 10986 10987 10988 10989 10990 10990 10991 10991 10992 10993 10995 10995 10996
10939 10941 10943 10946 10948 10950 10952 10954 10956 10958 10960 10962 10964 10964 10965 10967 10969 10970 10972 10974 10976 10978 10979 10977 10975 10975 10978 10979 10980 10981 10983 10984 10985 10986 10986 10987 10987 10988 10988 10990 10991 10991
10932 10934 10936 10939 10941 10943 10945 10948 10951 10953 10955 10957 10958 10960 10961 10963 10965 10966 10968 10970 10973 10974 10973 10970 10969 10971 10972 10974 10975 10976 10978 10979 10981 10981 10981 10981 10982 10983 10984 10985 10986 10985
10925 10927 10929 10932 10934 10936 10938 10941 10945 10947 10949 10951 10953 10955 10956 10958 10960 10961 10963 10965 10966 10966 10965 10963 10964 10965 10967 10968 10970 10971 10972 10974 10975 10976 10975 10975 10977 10978 10978 10980 10981 10981
10918 10920 10922 10925 10927 10929 10932 10935 10938 10941 10943 10945 10947 10948 10950 10952 10954 10955 10957 10959 10960 10959 10958 10957 10958 10959 10961 10962 10964 10965 10966 10968 10969 10970 10969 10969 10970 10971 10972 10973 10974 10974